GFSMA_500_spd_000.txt.gz
Wind_Speed
37 38 40 41 39 37 36 35 33 31 30 28 28 31 33 33 34 35 35 34 33 33 36 34 32 32 34 36 37 37 37 36 35 34 31 28 27 30 26 25 30 41 40
38 41 43 44 41 40 38 37 36 35 33 34 34 35 36 37 39 41 43 42 42 42 40 40 39 37 36 37 38 41 42 41 41 39 38 37 33 32 30 29 31 27 26
43 44 41 41 41 41 42 45 44 42 41 39 40 42 44 45 44 44 46 47 46 45 46 45 46 44 42 42 42 42 43 46 45 44 43 41 41 39 35 33 36 30 30
47 40 41 41 43 45 45 47 49 50 51 51 51 52 52 52 52 50 51 51 53 53 50 47 48 50 50 48 47 48 48 47 48 47 48 47 46 44 43 38 36 37 35
50 48 48 48 47 48 50 52 53 55 57 57 58 58 59 60 61 62 60 58 56 57 59 59 54 53 52 53 53 53 53 54 52 50 50 49 48 49 46 44 43 40 35
50 50 51 52 54 56 57 58 59 62 65 65 65 65 67 67 68 70 71 70 68 67 64 65 66 64 62 61 60 59 56 58 58 57 54 53 53 51 51 50 47 46 41
51 54 56 59 60 62 64 65 68 70 71 73 73 73 73 72 73 74 75 76 77 77 76 74 73 73 72 72 71 68 65 60 60 62 62 60 57 56 55 54 54 51 47
58 60 63 66 68 71 73 74 75 75 77 78 77 78 78 77 77 78 80 81 81 79 80 81 80 80 80 78 76 76 74 71 67 65 65 66 64 61 60 58 57 57 55
63 66 69 72 74 77 79 81 82 82 82 82 83 85 84 84 86 83 80 80 81 80 81 81 82 82 81 84 83 77 79 79 77 69 68 69 69 68 65 63 62 61 62
68 71 74 77 80 82 84 84 85 84 84 84 86 86 88 88 88 87 85 83 82 82 81 81 81 83 84 84 83 83 75 76 78 77 70 66 70 71 71 69 67 66 64
73 75 78 80 81 83 82 81 82 84 85 87 88 89 89 89 88 89 86 83 83 82 83 84 86 87 88 88 85 84 78 72 75 78 74 69 69 72 69 73 72 71 70
76 78 81 84 85 80 79 79 80 82 83 85 86 86 87 89 90 91 92 87 87 84 86 90 93 94 95 94 92 89 85 78 75 74 71 70 69 70 69 71 72 75 73
84 84 83 83 82 83 83 84 84 85 85 85 85 86 87 88 90 90 93 93 92 91 91 94 96 97 97 97 96 96 93 86 76 67 72 61 59 61 62 64 70 75 75
87 87 86 85 85 86 87 87 87 84 82 83 84 84 82 81 78 75 71 69 69 69 67 67 67 71 76 80 83 86 91 90 85 79 72 67 62 64 65 67 69 71 76
87 86 89 90 89 89 87 82 78 79 76 75 74 70 67 64 59 55 51 50 50 51 49 44 44 47 50 54 58 65 74 80 79 77 69 68 70 66 59 65 66 68 73
85 87 89 88 82 77 67 66 73 75 67 65 63 61 55 49 47 47 49 50 49 49 50 42 41 42 43 42 43 45 53 63 72 76 76 78 65 66 66 66 65 67 75
87 88 82 79 70 61 65 72 70 65 51 47 46 45 47 50 51 52 54 54 54 53 56 48 45 43 45 45 46 45 40 44 52 70 76 89 77 68 61 60 68 65 68
88 82 73 70 57 61 66 70 71 51 47 45 46 49 51 53 56 57 58 57 57 57 58 55 54 49 46 49 50 47 46 44 39 45 58 77 95 94 61 66 68 74 73
83 68 69 59 62 62 61 65 63 53 52 51 53 56 58 57 55 52 50 51 51 53 56 59 58 57 52 48 49 49 46 48 43 37 43 49 73 82 78 67 65 72 75
73 67 54 55 63 59 63 61 52 52 53 55 58 58 54 51 50 50 48 46 46 47 49 50 54 59 59 55 50 48 48 46 53 46 46 50 47 59 83 90 75 72 74
65 54 46 58 58 57 53 48 49 51 55 56 53 48 48 47 47 48 48 47 46 45 45 45 45 52 57 58 56 50 47 49 49 53 53 52 48 45 46 57 73 73 83
57 47 51 54 46 44 45 47 49 53 54 48 44 42 42 42 42 43 42 41 40 41 44 45 43 44 51 55 56 51 48 47 49 46 51 54 52 52 44 45 55 53 54
41 37 37 36 34 40 43 44 50 51 48 42 41 42 44 44 43 40 40 38 35 35 36 39 39 39 43 50 52 48 46 46 45 45 44 49 52 51 54 55 52 45 48
32 30 27 30 36 40 42 47 50 48 41 38 42 44 45 42 40 37 36 30 31 33 33 32 33 35 38 41 44 43 44 41 40 39 41 40 47 47 49 51 51 50 53
29 30 28 31 37 40 41 49 46 42 36 38 41 42 43 39 35 33 30 22 21 26 30 30 30 30 31 36 38 39 39 37 35 36 38 37 39 40 44 48 50 52 55
32 31 31 34 39 40 43 48 44 38 34 35 37 39 39 36 30 25 25 18 15 17 18 21 23 24 26 30 33 34 35 34 32 32 36 35 37 40 41 43 47 49 51

GFSMA_500_spd_003.txt.gz
Wind_Speed
32 35 39 37 36 33 30 30 31 31 31 31 32 32 33 36 38 38 38 38 39 39 37 36 35 33 33 34 34 36 37 37 35 33 30 30 28 27 29 28 29 36 37
40 38 38 35 34 34 34 34 35 35 35 35 36 37 37 38 40 42 44 44 44 44 45 46 45 42 39 38 38 37 37 39 40 38 38 35 35 34 30 32 32 29 31
38 42 38 35 37 38 39 40 42 44 46 44 44 44 45 46 47 47 49 49 48 47 46 46 46 49 48 44 43 42 42 40 42 44 43 43 42 41 37 35 33 32 32
46 43 39 39 40 42 43 43 46 48 49 50 50 51 52 54 56 57 58 58 57 56 55 55 52 49 50 52 50 49 47 46 45 44 46 47 47 45 43 42 39 36 38
49 44 42 43 46 46 48 49 50 52 54 56 58 60 61 62 63 63 63 63 64 65 65 64 63 61 59 56 58 56 53 53 52 49 49 49 48 49 48 48 47 44 42
48 48 48 49 49 51 54 56 57 60 62 63 63 64 65 67 70 70 71 71 71 71 71 72 73 73 71 68 65 64 64 59 56 54 53 52 53 52 52 53 52 50 48
46 47 50 54 58 60 61 62 65 66 67 69 71 71 71 73 74 76 76 76 76 77 79 79 79 80 79 78 77 75 72 71 67 62 60 58 58 57 55 55 53 54 54
53 56 59 62 65 67 69 72 75 75 75 77 77 77 78 76 77 79 81 81 81 81 81 83 85 86 87 87 84 82 80 79 76 72 65 65 62 61 62 59 58 56 56
59 62 65 69 72 75 76 79 81 81 81 81 81 81 80 80 81 78 81 84 85 85 85 86 86 87 87 87 88 86 85 81 81 78 76 68 65 66 66 65 63 60 60
65 69 72 75 77 79 80 81 83 85 84 84 83 82 84 87 88 91 89 84 86 89 89 87 86 86 87 87 85 85 85 86 83 82 79 78 72 67 69 70 68 66 63
68 71 75 78 80 83 85 85 85 84 85 85 86 87 88 90 94 95 93 91 90 91 91 90 88 88 89 89 88 86 84 82 85 83 82 79 76 70 69 69 71 71 70
70 78 82 84 87 88 88 88 89 89 89 89 88 88 88 88 89 91 93 93 94 94 95 95 95 94 92 90 89 89 87 84 82 82 79 79 78 71 72 68 66 72 73
83 85 86 88 89 89 89 90 90 91 92 88 84 73 71 73 79 80 82 82 84 83 86 88 90 91 93 94 91 91 90 89 87 86 85 80 79 78 74 69 66 67 71
85 88 90 92 93 94 95 95 95 91 84 79 74 66 72 77 75 64 62 64 62 60 59 61 65 68 71 78 83 87 87 89 88 86 88 87 85 81 78 72 72 70 69
90 92 95 95 96 95 96 92 84 77 73 71 63 67 70 58 51 49 48 49 49 46 42 43 44 45 49 52 57 61 68 74 77 79 79 83 84 81 79 67 70 71 73
93 94 94 94 95 93 84 78 73 68 66 64 66 70 76 60 56 54 52 51 51 51 47 48 46 45 46 47 48 46 45 49 54 61 68 74 77 79 74 76 73 74 68
94 93 95 95 90 80 71 68 69 62 60 63 70 69 54 55 55 56 57 57 58 58 56 55 53 50 50 50 47 46 44 42 41 47 54 60 70 74 77 82 77 69 72
94 95 97 88 75 69 64 59 59 57 57 66 62 54 54 54 56 59 58 57 56 56 58 57 55 54 54 53 53 50 48 45 41 41 40 45 51 74 79 88 89 80 80
96 99 89 74 65 61 54 52 58 61 66 56 53 52 54 56 54 49 48 48 50 51 52 55 52 50 53 55 57 56 53 49 48 45 42 38 40 56 73 79 81 86 77
101 91 71 60 58 51 45 52 57 48 48 49 51 54 52 47 42 41 44 46 47 45 48 51 52 50 51 51 62 62 59 54 51 49 46 43 36 41 54 80 83 83 82
89 69 56 51 45 40 41 33 41 45 45 50 50 51 45 43 46 50 50 49 48 47 45 48 50 51 50 49 52 59 62 59 52 49 48 44 45 46 49 52 80 87 87
69 52 44 38 31 28 33 38 43 43 48 50 50 46 43 45 48 49 49 48 46 44 43 44 44 44 49 47 48 51 56 59 54 49 47 48 50 48 55 49 51 59 74
51 41 36 33 33 32 35 40 45 43 51 49 48 44 42 44 45 47 46 44 41 39 40 36 36 38 41 45 45 44 48 54 53 49 48 46 45 52 52 50 46 45 48
44 38 35 35 34 34 37 42 45 44 52 47 45 40 39 40 43 44 42 38 35 36 32 27 29 30 33 38 43 43 43 47 47 46 47 45 46 44 44 53 52 45 40
38 34 35 36 35 35 38 43 43 44 50 44 42 37 36 38 41 44 39 34 30 29 24 22 25 30 29 32 36 37 37 41 40 42 44 42 41 42 40 39 47 47 44
34 32 34 35 35 37 40 44 43 45 46 41 37 34 34 35 39 40 36 32 27 21 17 14 15 22 26 28 30 30 31 33 36 38 38 34 37 36 36 35 41 47 47

GFSMA_500_spd_006.txt.gz
Wind_Speed
34 38 38 38 37 38 33 30 29 30 30 30 31 31 32 33 34 34 34 35 37 38 38 38 38 37 36 35 34 34 34 34 35 31 31 32 31 28 28 27 30 35 36
37 34 37 38 38 38 36 34 33 34 36 37 38 38 38 39 40 40 41 41 41 41 42 41 42 43 43 42 40 38 39 38 36 38 36 36 36 35 33 30 29 29 35
31 36 39 40 41 39 39 37 36 37 39 40 42 42 42 44 44 46 48 50 49 49 49 49 48 49 48 48 46 45 43 41 41 41 41 42 41 40 39 36 34 32 31
39 42 44 41 41 39 39 40 41 43 45 47 49 49 50 51 53 54 55 56 57 57 56 56 56 56 56 55 53 51 48 48 47 45 45 45 43 44 44 43 39 37 36
43 47 43 44 44 44 45 48 49 51 54 54 56 58 60 62 63 64 64 64 64 65 65 65 65 65 63 62 62 61 58 54 52 52 51 48 48 46 46 47 45 44 44
52 51 49 49 50 53 53 55 57 59 61 62 64 66 68 69 71 72 73 73 72 71 71 71 71 71 72 71 70 68 68 65 62 58 57 56 54 53 51 49 50 49 48
48 48 50 54 56 58 60 63 66 68 70 72 74 75 75 77 76 76 75 77 78 78 78 77 77 77 77 78 77 76 74 73 72 68 66 62 61 59 56 55 52 49 51
47 51 55 58 61 63 66 70 73 76 78 80 81 81 82 80 78 79 80 80 79 80 82 82 82 81 81 81 82 82 81 81 78 78 75 71 68 65 63 60 56 54 53
53 57 61 63 65 68 71 75 77 80 83 84 84 85 87 90 91 89 88 86 85 82 82 83 85 85 85 85 85 86 87 84 84 83 82 79 75 73 70 68 64 60 58
59 61 62 64 68 74 76 79 81 86 90 93 93 93 95 95 93 94 93 90 90 91 92 91 92 92 92 91 89 89 90 89 87 86 85 82 80 78 75 74 73 69 64
58 61 66 71 76 81 83 85 90 94 96 95 94 93 93 93 94 96 95 92 90 90 91 94 98 98 97 97 95 92 91 91 90 88 87 85 83 81 82 74 75 76 73
65 70 75 82 86 87 90 92 95 96 96 95 94 93 90 86 83 81 80 77 73 71 75 77 81 85 90 91 91 92 91 89 87 87 86 86 85 82 82 77 76 76 77
72 77 81 85 86 89 93 97 97 100 101 100 92 86 81 72 67 67 65 65 68 71 63 56 60 64 67 72 78 85 88 89 89 86 86 85 86 86 84 81 78 77 76
77 80 84 89 92 95 99 100 100 98 94 86 81 73 66 67 69 61 63 66 72 60 46 40 41 46 49 53 56 59 68 77 83 86 85 87 84 85 85 84 79 76 74
80 84 90 94 98 102 101 102 101 97 79 73 68 63 64 61 57 61 65 57 56 51 46 42 42 43 42 40 41 41 43 50 60 70 76 79 84 86 85 85 82 78 76
87 91 94 97 99 102 102 99 84 74 67 63 61 54 54 58 58 55 55 56 57 58 54 49 44 45 47 44 44 44 40 38 41 47 56 64 71 77 82 82 83 80 77
89 93 94 97 100 99 91 76 65 60 58 51 49 53 55 52 50 53 54 56 55 55 56 51 49 44 47 50 48 48 46 43 39 38 40 45 55 66 76 79 80 80 78
90 93 98 99 99 88 72 60 55 45 40 40 40 42 47 47 51 52 53 50 45 45 47 46 42 41 44 46 49 50 49 48 44 40 39 36 37 48 63 73 77 79 78
93 100 101 98 86 68 53 46 36 30 32 39 43 41 46 49 47 47 43 42 44 48 52 53 47 47 42 42 46 47 49 51 50 46 41 39 36 36 47 60 74 77 77
99 100 97 83 65 49 38 33 33 33 36 41 45 44 51 47 49 44 41 45 48 50 52 52 50 46 44 41 42 46 46 52 54 52 46 41 39 35 32 48 48 65 77
98 95 82 65 50 40 34 34 35 37 40 44 47 48 52 49 48 41 42 44 46 49 48 46 43 42 41 41 40 45 47 48 56 56 51 43 41 40 36 37 46 34 59
95 84 67 52 41 35 33 35 37 39 42 47 47 50 50 48 42 39 41 45 48 49 46 40 34 36 37 41 42 42 46 47 54 58 55 50 44 44 42 40 41 54 52
84 70 54 43 37 33 35 37 38 40 44 49 47 51 47 45 37 37 40 45 48 46 41 33 30 34 36 36 38 38 41 45 45 56 60 53 47 45 44 44 42 51 48
70 57 44 38 34 33 36 36 38 41 45 48 47 51 46 40 35 37 40 44 45 42 37 30 27 26 26 25 25 30 35 38 39 42 46 48 47 46 45 46 52 48 50
59 45 37 33 32 34 35 35 38 41 44 44 45 47 44 35 34 35 40 41 40 38 32 24 21 18 18 19 21 23 26 32 32 35 38 41 45 47 44 41 45 53 50
49 38 34 32 32 33 34 36 38 41 42 42 45 42 40 31 31 33 38 39 37 34 27 20 15 12 11 20 21 21 23 26 31 32 35 37 42 44 43 40 40 40 49

GFSMA_500_spd_009.txt.gz
Wind_Speed
29 31 33 33 29 32 37 40 40 37 36 35 34 33 32 33 33 33 33 33 33 34 34 35 37 38 38 36 35 35 35 36 33 32 32 33 33 32 31 30 34 33 35
25 29 29 30 32 39 40 44 42 39 37 35 35 36 37 37 39 39 39 40 39 40 41 41 42 43 43 45 43 42 40 39 40 39 37 34 35 36 36 33 35 32 37
25 31 32 37 37 42 44 45 42 39 38 40 42 44 45 46 47 47 47 48 48 49 49 48 49 50 50 49 51 50 48 47 45 44 43 42 39 38 40 39 39 35 32
37 34 42 40 45 48 48 46 43 44 47 48 50 52 54 55 55 56 57 57 58 59 59 59 58 57 57 57 56 55 56 54 53 52 49 47 45 44 43 47 42 38 39
40 44 49 50 47 46 46 46 48 50 52 54 57 59 60 62 63 63 64 66 67 68 69 68 67 67 67 67 66 64 62 62 59 58 57 55 52 49 49 47 44 43 43
47 44 45 45 44 47 50 52 53 55 58 60 63 66 68 69 70 71 72 73 74 75 76 77 77 76 76 75 75 73 72 70 68 66 63 63 61 57 55 53 47 47 48
43 44 44 46 49 52 56 57 59 62 65 68 71 72 72 71 74 77 79 81 81 82 83 85 86 87 86 83 82 81 79 78 77 75 72 69 67 64 59 57 54 53 51
42 44 49 53 57 60 59 60 63 65 69 71 74 76 78 80 81 86 88 89 89 88 88 89 90 91 93 93 92 90 88 86 84 83 80 78 74 71 68 65 63 60 56
50 53 57 60 62 60 61 64 68 70 75 78 82 86 89 92 97 97 96 97 97 95 94 93 90 89 89 91 93 95 95 94 91 88 87 84 83 79 76 73 71 66 63
55 58 60 60 61 64 69 72 74 79 85 88 92 95 102 107 107 107 103 100 98 97 97 97 97 97 97 96 94 92 93 95 94 95 92 90 88 86 83 79 78 76 71
57 60 61 63 68 72 75 80 84 88 91 95 98 102 104 103 101 99 95 89 84 82 83 84 84 85 89 94 97 97 97 97 96 96 97 94 90 89 88 84 83 81 78
60 62 66 70 74 77 81 85 89 93 97 100 104 104 101 95 90 83 81 74 66 58 58 61 63 63 65 71 76 88 95 98 98 97 99 98 94 89 90 87 88 83 84
64 68 72 75 79 83 87 92 95 98 102 102 101 95 86 77 71 68 66 61 55 49 48 51 56 61 64 62 59 61 66 76 88 95 96 97 98 93 88 89 88 84 82
69 72 75 78 83 86 90 95 101 104 104 101 89 77 69 62 57 54 51 51 52 51 51 49 41 44 48 51 50 49 49 53 60 71 79 90 93 94 89 87 88 86 83
71 74 79 83 87 90 95 102 104 102 92 81 70 62 55 46 39 39 41 44 46 44 40 42 42 46 47 51 49 48 44 41 47 54 62 71 83 89 90 87 86 85 82
74 79 82 85 89 95 101 104 99 88 75 62 53 44 32 35 40 42 43 47 52 51 44 44 43 45 45 46 48 49 48 43 40 42 50 58 66 76 86 87 87 85 82
78 81 86 89 94 100 103 98 83 67 53 42 35 34 35 38 40 41 48 53 50 53 53 39 42 38 40 40 40 43 49 49 45 41 40 44 49 61 72 80 86 86 84
82 86 89 93 99 100 94 78 61 46 37 35 35 36 38 41 44 44 52 48 49 48 45 41 41 42 44 44 43 40 41 46 50 46 43 41 38 45 60 72 77 82 84
84 88 92 99 99 92 75 60 45 37 36 36 36 38 41 44 47 47 49 47 45 42 44 45 43 45 46 46 45 43 41 40 46 50 48 44 40 36 43 57 69 77 77
85 91 99 98 89 73 59 46 38 33 35 37 38 41 43 48 49 49 48 47 40 41 45 48 49 50 47 43 42 42 42 41 41 46 49 47 44 39 38 42 51 65 75
91 98 97 88 73 60 47 39 34 33 35 37 39 41 45 50 49 51 48 41 39 43 46 50 49 47 42 38 37 38 40 41 37 42 47 49 47 43 39 38 39 42 56
97 96 86 72 61 47 38 34 31 33 35 36 39 43 47 47 47 47 44 38 40 44 47 48 46 42 37 31 31 34 36 39 39 43 48 49 48 46 41 40 38 32 37
95 83 71 61 49 39 35 33 33 35 35 36 39 42 44 45 47 44 37 36 39 44 47 46 41 36 31 30 30 32 35 36 38 41 46 53 49 48 44 41 41 38 41
80 71 62 51 40 35 33 32 32 33 35 38 40 42 41 43 45 40 32 34 38 41 43 42 35 30 24 24 25 26 29 33 38 41 47 50 51 49 49 44 42 39 40
71 64 53 43 36 33 33 32 33 34 35 37 39 40 41 42 40 33 29 31 35 39 40 37 29 25 20 18 17 13 15 22 29 36 40 43 45 48 51 50 46 44 43
66 55 45 38 34 33 32 30 31 32 34 36 38 39 40 39 35 28 26 29 32 35 36 34 27 22 17 12 10 9 11 13 21 28 33 36 38 41 47 51 51 48 47

GFSMA_500_spd_015.txt.gz
Wind_Speed
28 33 33 35 29 38 36 45 46 43 41 40 42 43 42 43 43 41 44 39 38 40 39 39 40 40 40 40 40 41 41 39 39 38 34 33 36 34 31 30 32 30 29
29 34 37 43 44 42 46 51 45 45 46 50 47 47 46 44 43 43 44 48 45 44 45 46 45 46 47 47 48 48 47 47 46 43 43 40 39 41 37 35 33 35 35
32 31 40 40 40 36 41 44 49 52 51 47 45 43 44 44 45 45 46 50 52 54 53 53 54 55 55 54 54 55 55 55 54 52 51 48 46 45 46 42 38 37 38
40 32 35 35 39 41 42 44 45 46 46 47 48 46 48 49 51 52 54 56 57 58 63 62 61 63 64 65 64 64 63 62 62 61 59 58 53 50 50 50 45 42 40
41 42 40 40 40 42 44 45 47 50 52 51 53 55 57 59 59 60 61 66 67 67 67 70 72 71 72 72 73 74 74 73 72 70 67 66 64 59 56 54 53 49 46
42 42 41 42 45 49 52 54 55 55 55 56 55 55 54 56 59 62 64 67 70 73 74 75 75 78 79 79 80 81 82 81 80 79 78 75 73 69 64 61 59 57 53
46 47 49 52 53 53 56 56 55 55 56 56 59 59 58 60 63 67 70 72 74 77 80 82 83 82 85 87 88 88 89 90 89 87 87 84 82 79 76 69 66 63 60
49 51 51 53 55 56 57 57 58 56 56 58 61 64 63 64 68 73 76 80 83 86 88 90 91 94 94 96 100 102 102 99 99 99 97 94 91 88 86 81 75 71 67
51 53 56 57 57 57 57 57 58 58 59 61 65 68 72 76 78 80 83 86 89 93 97 100 101 102 103 105 107 110 111 109 109 109 108 106 103 100 95 92 87 81 76
53 55 58 58 59 58 58 58 60 61 65 68 72 76 80 83 86 90 94 96 100 104 105 105 107 106 103 104 106 106 110 112 114 116 117 116 112 109 106 102 97 91 85
56 58 61 61 61 60 61 61 63 68 72 75 80 82 86 90 94 98 101 105 104 99 87 83 79 74 72 74 75 78 84 88 91 96 105 112 117 118 115 112 106 100 95
58 60 62 63 63 63 63 66 70 73 77 82 84 88 94 98 103 103 98 89 80 68 62 58 55 55 55 57 58 62 65 68 70 76 81 89 100 108 110 111 108 104 100
61 62 64 65 65 66 69 72 76 80 83 86 91 98 102 101 95 86 79 70 59 46 41 42 44 46 48 48 45 43 44 50 60 62 64 68 76 88 98 104 106 104 100
63 63 65 66 66 69 73 76 81 85 88 92 100 101 94 86 79 71 62 52 44 40 39 40 41 44 46 47 48 47 45 45 47 48 49 57 63 68 78 86 98 102 99
64 65 66 67 68 72 76 81 86 88 93 102 95 87 81 74 66 56 50 45 43 40 37 37 40 45 47 48 49 47 46 45 46 48 45 46 50 55 62 70 77 89 94
65 66 66 67 72 76 81 85 87 93 103 93 83 77 70 60 52 47 44 43 44 44 44 42 44 48 47 48 47 45 44 43 44 45 47 48 49 49 50 55 61 68 81
65 65 67 71 76 81 84 86 92 101 92 83 74 67 56 50 46 43 42 43 44 46 50 45 46 47 48 47 45 41 39 39 39 41 41 43 46 48 48 49 51 55 62
64 67 69 74 78 82 85 90 96 99 82 73 64 54 47 43 41 41 43 44 45 47 51 51 43 46 45 43 39 40 40 41 42 44 46 46 43 44 48 49 48 48 54
66 69 72 77 81 86 91 99 97 84 73 64 52 46 41 40 39 41 42 43 46 49 49 48 44 44 40 38 39 42 45 46 45 45 48 50 46 44 44 49 50 46 48
69 72 75 79 84 89 95 100 87 74 65 53 46 42 39 38 38 40 43 46 47 46 45 46 44 38 36 39 43 46 46 46 44 43 44 48 46 44 45 45 50 47 45
72 75 78 83 88 92 95 93 79 67 55 47 43 40 39 38 39 42 44 45 45 44 44 43 39 35 38 43 45 46 45 43 40 39 39 40 42 41 44 43 49 49 44
75 77 80 89 93 96 95 84 70 59 49 44 41 39 37 38 39 41 41 42 43 43 42 40 34 35 40 43 44 43 41 39 32 33 32 37 40 39 45 45 48 48 43
78 78 81 89 93 98 86 74 61 50 44 41 37 35 37 39 39 41 41 42 41 41 38 34 33 37 39 41 40 37 37 32 26 26 29 34 39 43 44 45 44 47 44
79 81 83 91 90 88 74 64 53 44 41 39 37 37 37 39 39 40 41 39 40 36 33 31 35 37 39 38 36 35 31 29 24 22 28 31 34 38 42 43 41 44 43
78 82 85 92 80 75 64 55 47 42 40 38 37 36 36 39 38 38 38 37 35 32 29 29 32 34 36 34 31 31 27 21 18 21 27 32 33 36 41 40 39 45 40
81 80 85 81 72 66 57 49 44 41 38 36 35 36 34 35 37 37 35 34 31 29 25 27 31 33 33 31 28 25 21 12 12 13 21 30 33 34 34 36 39 47 42